{"data":{"norad_id":52644,"intl_designator":"2022-052AY","name":"STARLINK-3985","alt_names":[],"object_type":"PAYLOAD","status":"ACTIVE","operator":null,"country":"US","launch_date":"2022-05-14","launch_site_code":"AFETR","launch_vehicle":null,"mission":null,"orbit_class":"UNKNOWN","rcs_meters":null,"size_class":null,"mass_kg":null,"dimensions":null,"purposes":["comms"],"wikipedia_slug":null,"has_3d_model":false,"image_url":null,"decayed_at":null,"tle_current":{"epoch":"2026-05-24T18:41:04.628256Z","epoch_age_seconds":88069,"freshness":"FRESH","line1":"1 52644U 22052AY  26144.77852579 -.00000033  00000+0  16013-4 0  9990","line2":"2 52644  53.2151 277.5418 0001145 100.8217 259.2905 15.08836778222612","mean_motion":15.08836778,"eccentricity":0.0001145,"inclination_deg":53.2151,"raan_deg":277.5418,"arg_perigee_deg":100.8217,"mean_anomaly_deg":259.2905,"bstar":1.6013e-5,"rev_number":22261,"period_min":95.437758477014,"perigee_km":538.96113891447,"apogee_km":540.54533577882,"semimajor_km":6917.8902373466,"source":"CELESTRAK","updated_at":"2026-05-25T13:38:17.207567Z"}}}